| time (UTC) | temp C | wind direction | speed KPH | gust KPH | rain 1hr cm | rain 24hr cm | rain mn cm | humidity % | barometer mb |
| 20260906144535 | 26 | 34 | 0.0 | 4.8 | 0.00 | 0.00 | 0.00 | 78 | 1016.7 |
| 20260906143031 | 25 | 122 | 0.0 | 9.7 | 0.00 | 0.00 | 0.00 | 80 | 1016.7 |
| 20260906141529 | 25 | 68 | 0.0 | 3.2 | 0.00 | 0.00 | 0.00 | 81 | 1016.6 |
| 20260906140042 | 24 | 348 | 0.0 | 4.8 | 0.00 | 0.00 | 0.00 | 85 | 1016.5 |
| 20260906134531 | 23 | 284 | 0.0 | 3.2 | 0.00 | 0.00 | 0.00 | 85 | 1016.4 |
| 20260906133003 | 23 | 269 | 0.0 | 3.2 | 0.00 | 0.00 | 0.00 | 87 | 1016.4 |
| 20260906131508 | 23 | 276 | 0.0 | 0.0 | 0.00 | 0.00 | 0.00 | 88 | 1016.6 |
| 20260906130015 | 23 | 220 | 0.0 | 1.6 | 0.00 | 0.00 | 0.00 | 89 | 1016.5 |
| 20260906124517 | 23 | 29 | 0.0 | 0.0 | 0.00 | 0.00 | 0.00 | 90 | 1016.3 |
| 20260906123017 | 22 | 250 | 0.0 | 0.0 | 0.00 | 0.00 | 0.00 | 90 | 1016.1 |
| 20260906121505 | 22 | 276 | 0.0 | 0.0 | 0.00 | 0.00 | 0.00 | 90 | 1016.0 |
| 20260906120004 | 23 | 219 | 0.0 | 0.0 | 0.00 | 0.00 | 0.00 | 90 | 1015.7 |
| 20260906114508 | 23 | 205 | 0.0 | 0.0 | 0.00 | 0.00 | 0.00 | 90 | 1015.6 |
| 20260906113013 | 23 | 255 | 0.0 | 0.0 | 0.00 | 0.00 | 0.00 | 90 | 1015.5 |
| 20260906111522 | 23 | 255 | 0.0 | 0.0 | 0.00 | 0.00 | 0.00 | 89 | 1015.5 |
| 20260906110010 | 23 | 255 | 0.0 | 0.0 | 0.00 | 0.00 | 0.00 | 88 | 1015.5 |
| 20260906104512 | 23 | 255 | 0.0 | 0.0 | 0.00 | 0.00 | 0.00 | 88 | 1015.4 |
| 20260906103009 | 24 | 255 | 0.0 | 0.0 | 0.00 | 0.00 | 0.00 | 87 | 1015.2 |
| 20260906101516 | 24 | 242 | 0.0 | 0.0 | 0.00 | 0.00 | 0.00 | 86 | 1015.0 |
| 20260906100023 | 25 | 242 | 0.0 | 0.0 | 0.00 | 0.00 | 0.00 | 86 | 1015.0 |
| 20260906094506 | 25 | 242 | 0.0 | 0.0 | 0.00 | 0.00 | 0.00 | 85 | 1015.0 |
| 20260906093010 | 25 | 207 | 0.0 | 0.0 | 0.00 | 0.00 | 0.00 | 84 | 1015.0 |
| 20260906091524 | 25 | 207 | 0.0 | 0.0 | 0.00 | 0.00 | 0.00 | 84 | 1014.7 |
| 20260906090017 | 25 | 215 | 0.0 | 0.0 | 0.00 | 0.00 | 0.00 | 86 | 1014.6 |
| 20260906084527 | 26 | 244 | 0.0 | 0.0 | 0.00 | 0.00 | 0.00 | 85 | 1014.4 |
| 20260906083009 | 26 | 266 | 0.0 | 0.0 | 0.00 | 0.00 | 0.00 | 86 | 1014.3 |
| 20260906081528 | 26 | 266 | 0.0 | 0.0 | 0.00 | 0.00 | 0.00 | 86 | 1014.4 |
| 20260906080014 | 26 | 266 | 0.0 | 0.0 | 0.00 | 0.00 | 0.00 | 85 | 1014.4 |
| 20260906074523 | 26 | 117 | 0.0 | 0.0 | 0.00 | 0.00 | 0.00 | 84 | 1014.4 |
| 20260906073027 | 26 | 117 | 0.0 | 0.0 | 0.00 | 0.00 | 0.00 | 83 | 1014.3 |
| 20260906071505 | 27 | 117 | 0.0 | 0.0 | 0.00 | 0.00 | 0.00 | 81 | 1014.4 |
| 20260906070013 | 27 | 117 | 0.0 | 0.0 | 0.00 | 0.00 | 0.00 | 80 | 1014.4 |
| 20260906064518 | 27 | 61 | 0.0 | 0.0 | 0.00 | 0.00 | 0.00 | 80 | 1014.5 |
| 20260906063022 | 27 | 223 | 0.0 | 0.0 | 0.00 | 0.00 | 0.00 | 81 | 1014.7 |
| 20260906061528 | 27 | 223 | 0.0 | 0.0 | 0.00 | 0.00 | 0.00 | 81 | 1014.6 |
| 20260906060009 | 26 | 224 | 0.0 | 0.0 | 0.00 | 0.00 | 0.00 | 82 | 1014.6 |
| 20260906054514 | 26 | 224 | 0.0 | 0.0 | 0.00 | 0.00 | 0.00 | 83 | 1014.8 |
| 20260906053026 | 26 | 223 | 0.0 | 0.0 | 0.00 | 0.00 | 0.00 | 81 | 1014.8 |
| 20260906051531 | 27 | 224 | 0.0 | 0.0 | 0.00 | 0.00 | 0.00 | 80 | 1014.6 |
| 20260906050052 | 27 | 224 | 0.0 | 0.0 | 0.00 | 0.00 | 0.00 | 80 | 1014.7 |
| 20260906044510 | 27 | 224 | 0.0 | 0.0 | 0.00 | 0.00 | 0.00 | 79 | 1014.6 |
| 20260906043016 | 27 | 223 | 0.0 | 0.0 | 0.00 | 0.00 | 0.00 | 78 | 1014.4 |
| 20260906041523 | 27 | 224 | 0.0 | 0.0 | 0.00 | 0.00 | 0.00 | 78 | 1014.4 |
| 20260906040026 | 27 | 224 | 0.0 | 0.0 | 0.00 | 0.00 | 0.00 | 76 | 1014.3 |
| 20260906034539 | 28 | 224 | 0.0 | 0.0 | 0.00 | 0.00 | 0.00 | 76 | 1014.2 |
| 20260906033019 | 28 | 223 | 0.0 | 0.0 | 0.00 | 0.00 | 0.00 | 75 | 1014.2 |
| 20260906031520 | 28 | 223 | 0.0 | 0.0 | 0.00 | 0.00 | 0.00 | 75 | 1013.8 |
| 20260906030024 | 28 | 224 | 0.0 | 0.0 | 0.00 | 0.00 | 0.00 | 74 | 1013.7 |
| 20260906024529 | 28 | 223 | 0.0 | 0.0 | 0.00 | 0.00 | 0.00 | 73 | 1013.7 |
| 20260906023035 | 28 | 224 | 0.0 | 0.0 | 0.00 | 0.00 | 0.00 | 71 | 1013.4 |
| 20260906021517 | 28 | 223 | 0.0 | 0.0 | 0.00 | 0.00 | 0.00 | 70 | 1013.2 |
| 20260906020022 | 29 | 224 | 0.0 | 0.0 | 0.00 | 0.00 | 0.00 | 68 | 1013.1 |
| 20260906014531 | 29 | 223 | 0.0 | 0.0 | 0.00 | 0.00 | 0.00 | 67 | 1012.9 |
| 20260906013009 | 30 | 223 | 0.0 | 0.0 | 0.00 | 0.00 | 0.00 | 65 | 1012.8 |
| 20260906011508 | 30 | 223 | 0.0 | 0.0 | 0.00 | 0.00 | 0.00 | 64 | 1012.6 |
| 20260906010010 | 30 | 223 | 0.0 | 0.0 | 0.00 | 0.00 | 0.00 | 63 | 1012.5 |
| 20260906004503 | 31 | 223 | 0.0 | 0.0 | 0.00 | 0.00 | 0.00 | 60 | 1012.4 |
| 20260906003005 | 32 | 223 | 0.0 | 0.0 | 0.00 | 0.00 | 0.00 | 58 | 1012.3 |
| 20260906001507 | 33 | 223 | 0.0 | 0.0 | 0.00 | 0.00 | 0.00 | 55 | 1012.2 |
| 20260906000013 | 33 | 223 | 0.0 | 0.0 | 0.00 | 0.00 | 0.00 | 55 | 1012.3 |
| 20260905234513 | 34 | 223 | 0.0 | 0.0 | 0.00 | 0.00 | 0.00 | 55 | 1012.3 |
| 20260905233003 | 34 | 223 | 0.0 | 0.0 | 0.00 | 0.00 | 0.00 | 55 | 1012.4 |
| 20260905231505 | 35 | 259 | 0.0 | 0.0 | 0.00 | 0.00 | 0.00 | 52 | 1012.5 |
| 20260905230008 | 35 | 240 | 0.0 | 0.0 | 0.00 | 0.00 | 0.00 | 50 | 1012.6 |
| 20260905224516 | 36 | 240 | 0.0 | 0.0 | 0.00 | 0.00 | 0.00 | 45 | 1012.4 |
| 20260905223016 | 36 | 246 | 0.0 | 1.6 | 0.00 | 0.00 | 0.00 | 44 | 1012.2 |
| 20260905221507 | 36 | 238 | 0.0 | 1.6 | 0.00 | 0.00 | 0.00 | 45 | 1012.3 |
| 20260905220008 | 36 | 272 | 0.0 | 0.0 | 0.00 | 0.00 | 0.00 | 49 | 1012.3 |
| 20260905214512 | 36 | 262 | 0.0 | 0.0 | 0.00 | 0.00 | 0.00 | 46 | 1012.5 |
| 20260905213022 | 36 | 264 | 0.0 | 0.0 | 0.00 | 0.00 | 0.00 | 43 | 1012.3 |
| 20260905211516 | 36 | 284 | 0.0 | 3.2 | 0.00 | 0.00 | 0.00 | 44 | 1012.4 |
| 20260905210006 | 36 | 247 | 0.0 | 6.4 | 0.00 | 0.00 | 0.00 | 50 | 1012.7 |
| 20260905204510 | 36 | 236 | 0.0 | 4.8 | 0.00 | 0.00 | 0.00 | 47 | 1012.7 |
| 20260905203016 | 35 | 134 | 1.6 | 6.4 | 0.00 | 0.00 | 0.00 | 48 | 1012.9 |
| 20260905201520 | 33 | 271 | 1.6 | 6.4 | 0.00 | 0.00 | 0.00 | 49 | 1013.1 |
| 20260905200029 | 35 | 270 | 3.2 | 9.7 | 0.00 | 0.00 | 0.00 | 49 | 1013.2 |
| 20260905194509 | 38 | 236 | 0.0 | 4.8 | 0.00 | 0.00 | 0.00 | 39 | 1013.2 |
| 20260905193020 | 39 | 263 | 0.0 | 3.2 | 0.00 | 0.00 | 0.00 | 40 | 1013.3 |
| 20260905191513 | 38 | 240 | 0.0 | 4.8 | 0.00 | 0.00 | 0.00 | 39 | 1013.5 |
| 20260905190021 | 37 | 304 | 1.6 | 4.8 | 0.00 | 0.00 | 0.00 | 44 | 1013.5 |
| 20260905184532 | 37 | 232 | 0.0 | 6.4 | 0.00 | 0.00 | 0.00 | 43 | 1013.6 |
| 20260905183028 | 37 | 278 | 0.0 | 3.2 | 0.00 | 0.00 | 0.00 | 45 | 1013.8 |
| 20260905181524 | 37 | 261 | 1.6 | 6.4 | 0.00 | 0.00 | 0.00 | 44 | 1013.9 |
| 20260905180024 | 37 | 275 | 0.0 | 6.4 | 0.00 | 0.00 | 0.00 | 48 | 1014.1 |
| 20260905174532 | 36 | 228 | 1.6 | 6.4 | 0.00 | 0.00 | 0.00 | 49 | 1014.2 |
| 20260905173026 | 36 | 241 | 1.6 | 4.8 | 0.00 | 0.00 | 0.00 | 49 | 1014.3 |
| 20260905171523 | 36 | 263 | 0.0 | 4.8 | 0.00 | 0.00 | 0.00 | 53 | 1014.5 |
| 20260905170024 | 36 | 236 | 0.0 | 3.2 | 0.00 | 0.00 | 0.00 | 50 | 1014.7 |
| 20260905164526 | 35 | 261 | 0.0 | 3.2 | 0.00 | 0.00 | 0.00 | 50 | 1014.8 |
| 20260905163023 | 34 | 275 | 0.0 | 3.2 | 0.00 | 0.00 | 0.00 | 54 | 1015.0 |
| 20260905161528 | 33 | 271 | 0.0 | 6.4 | 0.00 | 0.00 | 0.00 | 59 | 1015.0 |
| 20260905160042 | 32 | 243 | 0.0 | 6.4 | 0.00 | 0.00 | 0.00 | 59 | 1015.1 |
| 20260905154527 | 32 | 301 | 1.6 | 4.8 | 0.00 | 0.00 | 0.00 | 61 | 1015.0 |
| 20260905153021 | 31 | 229 | 1.6 | 6.4 | 0.00 | 0.00 | 0.00 | 61 | 1015.1 |
| 20260905151525 | 31 | 297 | 1.6 | 8.0 | 0.00 | 0.00 | 0.00 | 62 | 1015.1 |
| 20260905150004 | 30 | 269 | 3.2 | 6.4 | 0.00 | 0.00 | 0.00 | 63 | 1015.1 |